Regional Weather Roundup
Issued by NWS Jackson, KY

Home | Current Version | Previous Version | Text Only | Print | Product List | Glossary Off
Versions: 1 2 3 4 5 6 7 8 9 10 11 12 13 14 15 16 17 18 19 20 21 22 23 24 25 26 27

000
ASUS43 KJKL 292210
RWRJKL

EAST KENTUCKY HOURLY WEATHER ROUNDUP
NATIONAL WEATHER SERVICE JACKSON KY
600 PM EDT THU SEP 29 2016

NOTE: "FAIR" INDICATES FEW OR NO CLOUDS BELOW 12,000 FEET WITH
NO SIGNIFICANT WEATHER AND/OR OBSTRUCTIONS TO VISIBILITY.

* THESE REPORTS ARE NOT UNDER NWS QUALITY CONTROL AND MAY NOT
  REPORT WEATHER SUCH AS PRECIPITATION AND FOG.

KYZ079-080-083-085-087-088-110-112-115-119-120-292300
...EASTERN KENTUCKY...

CITY           SKY/WX    TMP DP  RH WIND       PRES   REMARKS
JACKSON        CLOUDY    58  52  80 W3        30.07R
LONDON         CLOUDY    61  49  64 NE5       30.06R
SOMERSET*      CLOUDY    59  46  63 W6        30.08S
MONTICELLO*    CLOUDY    60  51  72 W12       30.09R
WILLIAMSBURG*  CLOUDY    59  52  77 W5        30.07R
MIDDLESBORO*   CLOUDY    63  50  61 N6        30.06R
HARLAN APT*    CLOUDY    59  50  72 SW3       30.06S
PIKE CO APT*   LGT RAIN  55  55 100 CALM      30.07R VSB 3/4
BIG SANDY APT* CLOUDY    56  56 100 CALM      30.07R
MOREHEAD APT*  CLOUDY    59  55  88 CALM      30.08R
ASHLAND*       CLOUDY    61  57  88 W3        30.04R
$$

KYZ035-036-041-042-044-050-067-078-099-292300
...CENTRAL KENTUCKY...

CITY           SKY/WX    TMP DP  RH WIND       PRES   REMARKS
MT STERLING*   CLOUDY   N/A N/A N/A CALM      30.08R
FLEMING/MASON* MOSUNNY   60  54  80 CALM      30.07S
DANVILLE*      CLOUDY    63  50  63 W7        30.07S
LEXINGTON      CLOUDY    63  51  65 N6        30.07R
FRANKFORT      PTSUNNY   65  50  58 NE6       30.06R
LOUISVILLE     CLOUDY    65  47  52 CALM      30.07R
LEBANON*       MOCLDY    57  55  94 NW3       30.08R
GLASGOW*       LGT RAIN  59  52  75 W5        30.08R
BOWLING GREEN  CLOUDY    62  50  64 NW6       30.09R
$$

KYZ091>093-OHZ055-061-077-WVZ005-015-034-035-042-292300
...SOUTHERN OHIO/WEST VIRGINIA...

CITY           SKY/WX    TMP DP  RH WIND       PRES   REMARKS
COVINGTON      PTSUNNY   64  52  64 NE7       30.07S
COLUMBUS       CLOUDY    64  62  93 N10       30.04F
DAYTON         PTSUNNY   60  55  83 E10       30.10R
WILMINGTON     LGT RAIN  60  56  86 N8        30.06F FOG
HUNTINGTON     RAIN      59  57  93 SW5       30.05R FOG
CHARLESTON     LGT RAIN  62  60  93 E6        30.01F
PINEVILLE*     CLOUDY    61  58  88 MISG      30.08F
BECKLEY        PTSUNNY   62  55  77 W5        30.04R
BLUEFIELD      CLOUDY    60  54  80 W8        30.06R
LOGAN CO APT*  CLOUDY    59  59 100 CALM      30.04S
$$

VAZ002-007-008-TNZ017-027-036-066-071-292300
...SOUTHWEST VIRGINIA/EAST TENNESSEE...

CITY           SKY/WX    TMP DP  RH WIND       PRES   REMARKS
WISE*          LGT RAIN  54  52  94 NW5       30.08R
JONESVILLE*    MOCLDY    63  50  63 CALM      30.07R
ABINGDON*      CLOUDY    63  60  91 NW6       30.03R
BRISTOL        CLOUDY    64  55  72 W9        30.02R
MORRISTOWN*    CLOUDY    64  50  59 N8G15     30.02R
SEVIERVILLE*   CLOUDY    66  48  52 NW7       30.02R
KNOXVILLE      PTSUNNY   68  47  46 NW12      30.02R
OAK RIDGE      PTSUNNY   69  46  43 NW5       30.05R
CROSSVILLE     CLOUDY    60  44  55 W8        30.08R
NASHVILLE      LGT RAIN  60  51  72 W8        30.10R
$$

...KEY TO REMARKS...
VSB - VISIBILITY IN MILES
WCI - WIND CHILL INDEX
HX  - HEAT INDEX

$$




USA.gov is the U.S. government's official web portal to all federal, state and local government web resources and services.